EW0603 Weather Reports


Display with metric or nautical units.
time (UTC)temp
F
wind
direction
speed
MPH
gust
MPH
rain 1hr
in
rain 24hr
in
rain mn
in
humidity
%
barometer
mb
20260903034641 82 269 0.0 0.0 0.00 0.00 0.00 79 1009.3
20260903034534 82 269 0.0 0.0 0.00 0.00 0.00 79 1009.3
20260903034428 82 270 0.0 0.0 0.00 0.00 0.00 79 1009.3
20260903034321 82 270 0.0 4.0 0.00 0.00 0.00 79 1009.3
20260903034216 82 273 0.0 4.0 0.00 0.00 0.00 79 1009.2
20260903034110 82 259 0.0 3.0 0.00 0.00 0.00 79 1009.2
20260903034003 82 263 0.0 0.0 0.00 0.00 0.00 79 1009.2
20260903033900 82 263 0.0 0.0 0.00 0.00 0.00 79 1009.2
20260903033758 82 263 0.0 0.0 0.00 0.00 0.00 79 1009.1
20260903033651 82 263 0.0 0.0 0.00 0.00 0.00 79 1009.1
20260903033549 82 263 0.0 0.0 0.00 0.00 0.00 79 1009.1
20260903033442 82 234 0.0 8.0 0.00 0.00 0.00 79 1009.1
20260903033337 82 248 0.0 8.0 0.00 0.00 0.00 79 1009.1
20260903033234 82 277 0.0 8.0 0.00 0.00 0.00 79 1009.0
20260903033127 82 238 0.0 1.0 0.00 0.00 0.00 79 1009.1
20260903033021 82 244 0.0 0.0 0.00 0.00 0.00 79 1009.0
20260903032914 82 236 0.0 0.0 0.00 0.00 0.00 79 1009.1
20260903032806 82 236 0.0 0.0 0.00 0.00 0.00 79 1009.0
20260903032442 82 206 0.0 5.0 0.00 0.00 0.00 79 1009.0
20260903032336 82 235 0.0 5.0 0.00 0.00 0.00 79 1009.0
20260903032228 82 231 0.0 5.0 0.00 0.00 0.00 79 1009.1
20260903032126 82 218 0.0 5.0 0.00 0.00 0.00 80 1009.1
20260903032024 82 219 0.0 5.0 0.00 0.00 0.00 80 1009.0
20260903031920 82 220 0.0 5.0 0.00 0.00 0.00 80 1009.0
20260903031816 82 244 0.0 4.0 0.00 0.00 0.00 80 1009.0
20260903031452 82 254 0.0 0.0 0.00 0.00 0.00 80 1009.0
20260903031347 82 202 0.0 0.0 0.00 0.00 0.00 80 1009.0
20260903031242 82 221 0.0 0.0 0.00 0.00 0.00 80 1009.0
20260903031140 82 202 0.0 0.0 0.00 0.00 0.00 80 1009.1
20260903031033 82 223 0.0 0.0 0.00 0.00 0.00 80 1009.0
20260903030927 82 229 0.0 0.0 0.00 0.00 0.00 80 1009.0
20260903030823 82 229 0.0 0.0 0.00 0.00 0.00 80 1009.0
20260903030721 82 229 0.0 0.0 0.00 0.00 0.00 80 1009.1
20260903030613 82 251 0.0 0.0 0.00 0.00 0.00 80 1009.0
20260903030508 82 218 0.0 0.0 0.00 0.00 0.00 80 1009.0
20260903030401 82 202 0.0 0.0 0.00 0.00 0.00 80 1009.0
20260903030254 82 212 0.0 0.0 0.00 0.00 0.00 80 1009.0
20260903030149 82 202 0.0 0.0 0.00 0.00 0.00 80 1009.0
20260903030047 82 202 0.0 0.0 0.00 0.00 0.00 80 1009.0
20260903025940 81 192 0.0 0.0 0.00 0.00 0.00 80 1009.0
20260903025833 81 190 0.0 0.0 0.00 0.00 0.00 80 1009.0
20260903025726 81 263 0.0 0.0 0.00 0.00 0.00 81 1009.0
20260903025624 81 263 0.0 0.0 0.00 0.00 0.00 81 1009.1
20260903025520 81 260 0.0 0.0 0.00 0.00 0.00 81 1009.0
20260903025413 81 217 0.0 0.0 0.00 0.00 0.00 81 1009.1
20260903025308 81 217 0.0 0.0 0.00 0.00 0.00 81 1009.1
20260903025205 81 216 0.0 0.0 0.00 0.00 0.00 81 1009.1
20260903025058 81 240 0.0 0.0 0.00 0.00 0.00 81 1009.1
20260903024950 81 240 0.0 0.0 0.00 0.00 0.00 81 1009.1
20260903024627 81 180 0.0 0.0 0.00 0.00 0.00 82 1009.1
20260903024524 81 207 0.0 0.0 0.00 0.00 0.00 82 1009.1
20260903024420 81 209 0.0 0.0 0.00 0.00 0.00 82 1009.0
20260903024317 80 248 0.0 0.0 0.00 0.00 0.00 82 1009.0
20260903024212 80 250 0.0 0.0 0.00 0.00 0.00 82 1009.0
20260903023849 80 246 0.0 0.0 0.00 0.00 0.00 83 1008.9
20260903023743 80 246 0.0 0.0 0.00 0.00 0.00 83 1008.8
20260903023640 80 215 0.0 0.0 0.00 0.00 0.00 83 1008.8
20260903023535 80 175 0.0 0.0 0.00 0.00 0.00 83 1008.8
20260903023428 80 175 0.0 0.0 0.00 0.00 0.00 83 1008.8
20260903023326 79 175 0.0 0.0 0.00 0.00 0.00 84 1008.8
20260903023219 79 175 0.0 0.0 0.00 0.00 0.00 84 1008.8
20260903023112 79 176 0.0 0.0 0.00 0.00 0.00 84 1008.9
20260903023006 79 207 0.0 0.0 0.00 0.00 0.00 84 1008.9
20260903022903 79 207 0.0 0.0 0.00 0.00 0.00 84 1008.9
20260903022758 79 206 0.0 0.0 0.00 0.00 0.00 84 1009.0
20260903022429 79 200 0.0 0.0 0.00 0.00 0.00 84 1009.1
20260903022327 79 200 0.0 0.0 0.00 0.00 0.00 84 1009.1
20260903022224 79 200 0.0 0.0 0.00 0.00 0.00 84 1009.1
20260903021900 79 200 0.0 0.0 0.00 0.00 0.00 84 1009.3
20260903021752 79 200 0.0 0.0 0.00 0.00 0.00 84 1009.3
20260903021645 79 200 0.0 0.0 0.00 0.00 0.00 84 1009.3
20260903021540 79 200 0.0 0.0 0.00 0.00 0.00 84 1009.4
20260903021433 79 200 0.0 0.0 0.00 0.00 0.00 84 1009.4
20260903021326 79 200 0.0 0.0 0.00 0.00 0.00 84 1009.4
20260903021223 79 200 0.0 0.0 0.00 0.00 0.00 84 1009.5
20260903021119 79 200 0.0 0.0 0.00 0.00 0.00 84 1009.5
20260903020536 79 200 0.0 0.0 0.00 0.00 0.00 83 1009.7
20260903020430 79 200 0.0 0.0 0.00 0.00 0.00 83 1009.6
20260903020109 79 200 0.0 0.0 0.00 0.00 0.00 83 1009.7
20260903015743 79 200 0.0 0.0 0.00 0.00 0.00 83 1009.7
20260903015636 79 200 0.0 0.0 0.00 0.00 0.00 83 1009.6
20260903015532 79 200 0.0 0.0 0.00 0.00 0.00 83 1009.7
20260903015424 79 200 0.0 0.0 0.00 0.00 0.00 83 1009.6
20260903015317 79 200 0.0 0.0 0.00 0.00 0.00 82 1009.7
20260903014955 80 200 0.0 0.0 0.00 0.00 0.00 82 1009.6
20260903014850 80 200 0.0 0.0 0.00 0.00 0.00 82 1009.6
20260903014743 80 200 0.0 0.0 0.00 0.00 0.00 82 1009.6
20260903014635 80 200 0.0 0.0 0.00 0.00 0.00 82 1009.5
20260903014530 80 200 0.0 0.0 0.00 0.00 0.00 82 1009.5
20260903014426 80 200 0.0 0.0 0.00 0.00 0.00 82 1009.5
20260903014324 80 200 0.0 0.0 0.00 0.00 0.00 82 1009.5
20260903014217 80 200 0.0 0.0 0.00 0.00 0.00 82 1009.5
20260903014115 80 200 0.0 0.0 0.00 0.00 0.00 81 1009.6
20260903014012 80 200 0.0 0.0 0.00 0.00 0.00 81 1009.5
20260903013647 80 200 0.0 0.0 0.00 0.00 0.00 81 1009.5
20260903013544 80 200 0.0 0.0 0.00 0.00 0.00 81 1009.5
20260903013439 80 200 0.0 0.0 0.00 0.00 0.00 81 1009.5
20260903013336 80 200 0.0 0.0 0.00 0.00 0.00 81 1009.6
20260903013232 80 200 0.0 0.0 0.00 0.00 0.00 81 1009.5
20260903012907 80 200 0.0 0.0 0.00 0.00 0.00 81 1009.5
20260903012801 80 200 0.0 0.0 0.00 0.00 0.00 81 1009.5
20260903012432 80 200 0.0 0.0 0.00 0.00 0.00 81 1009.5
20260903011626 81 200 0.0 0.0 0.00 0.00 0.00 80 1009.5
20260903011522 81 200 0.0 0.0 0.00 0.00 0.00 80 1009.5
20260903011156 81 200 0.0 0.0 0.00 0.00 0.00 79 1009.4
20260903010829 81 200 0.0 0.0 0.00 0.00 0.00 79 1009.4
20260903010724 81 200 0.0 0.0 0.00 0.00 0.00 79 1009.4
20260903010358 81 200 0.0 0.0 0.00 0.00 0.00 78 1009.4
20260903010254 82 200 0.0 0.0 0.00 0.00 0.00 78 1009.3
20260903010149 82 200 0.0 0.0 0.00 0.00 0.00 78 1009.3
20260903010045 82 200 0.0 0.0 0.00 0.00 0.00 78 1009.3
20260903005939 82 200 0.0 0.0 0.00 0.00 0.00 77 1009.3
20260903005616 82 200 0.0 0.0 0.00 0.00 0.00 77 1009.3
20260903005513 82 200 0.0 0.0 0.00 0.00 0.00 76 1009.2
20260903005407 82 200 0.0 0.0 0.00 0.00 0.00 76 1009.2
20260903005306 82 200 0.0 0.0 0.00 0.00 0.00 76 1009.2
20260903004937 83 200 0.0 0.0 0.00 0.00 0.00 75 1009.2
20260903004834 83 200 0.0 0.0 0.00 0.00 0.00 75 1009.2
20260903004506 83 200 0.0 0.0 0.00 0.00 0.00 74 1009.1
20260903004403 83 200 0.0 0.0 0.00 0.00 0.00 74 1009.1
20260903004039 84 200 0.0 0.0 0.00 0.00 0.00 73 1009.1
20260903003711 84 200 0.0 0.0 0.00 0.00 0.00 73 1009.1
20260903003608 84 200 0.0 0.0 0.00 0.00 0.00 73 1009.0
20260903003506 84 200 0.0 0.0 0.00 0.00 0.00 73 1009.0
20260903003403 84 200 0.0 0.0 0.00 0.00 0.00 72 1009.0
20260903003257 84 200 0.0 0.0 0.00 0.00 0.00 72 1008.9
20260903003152 84 200 0.0 0.0 0.00 0.00 0.00 72 1008.9
20260903003047 84 200 0.0 0.0 0.00 0.00 0.00 72 1008.9
20260903002942 84 200 0.0 0.0 0.00 0.00 0.00 71 1008.9
20260903002838 85 200 0.0 0.0 0.00 0.00 0.00 71 1008.8
20260903002256 85 200 0.0 0.0 0.00 0.00 0.00 70 1008.8
20260903002151 85 200 0.0 0.0 0.00 0.00 0.00 70 1008.8
20260903002045 85 200 0.0 0.0 0.00 0.00 0.00 70 1008.8
20260903001941 85 200 0.0 0.0 0.00 0.00 0.00 70 1008.8
20260903001835 85 200 0.0 0.0 0.00 0.00 0.00 70 1008.8
20260903001512 86 200 0.0 0.0 0.00 0.00 0.00 70 1008.9
20260903001411 86 200 0.0 0.0 0.00 0.00 0.00 69 1008.9
20260903001304 86 200 0.0 0.0 0.00 0.00 0.00 69 1008.8
20260903001159 86 200 0.0 0.0 0.00 0.00 0.00 69 1008.8
20260903001057 86 200 0.0 0.0 0.00 0.00 0.00 68 1008.8
20260903000953 86 200 0.0 0.0 0.00 0.00 0.00 69 1008.8
20260903000850 86 200 0.0 0.0 0.00 0.00 0.00 68 1008.9
20260903000746 86 200 0.0 0.0 0.00 0.00 0.00 68 1008.9
20260903000417 87 200 0.0 0.0 0.00 0.00 0.00 67 1008.9
20260903000052 87 213 0.0 0.0 0.00 0.00 0.00 67 1009.0
20260902235950 87 213 0.0 0.0 0.00 0.00 0.00 67 1008.9
20260902235626 87 213 0.0 0.0 0.00 0.00 0.00 66 1009.0
20260902235520 88 213 0.0 0.0 0.00 0.00 0.00 66 1009.0
20260902235418 88 213 0.0 0.0 0.00 0.00 0.00 66 1009.0
20260902235315 88 213 0.0 0.0 0.00 0.00 0.00 66 1009.0
20260902235209 88 213 0.0 0.0 0.00 0.00 0.00 66 1009.0
20260902234628 88 215 0.0 0.0 0.00 0.00 0.00 65 1008.9
20260902234300 89 216 0.0 0.0 0.00 0.00 0.00 65 1009.0
20260902234153 89 216 0.0 0.0 0.00 0.00 0.00 64 1008.9
20260902234049 89 216 0.0 0.0 0.00 0.00 0.00 64 1008.9
20260902233725 89 216 0.0 0.0 0.00 0.00 0.00 64 1008.9
20260902233618 89 216 0.0 0.0 0.00 0.00 0.00 64 1008.9
20260902233515 89 216 0.0 0.0 0.00 0.00 0.00 64 1009.0
20260902233413 89 216 0.0 0.0 0.00 0.00 0.00 64 1008.9
20260902233309 89 217 0.0 0.0 0.00 0.00 0.00 64 1008.9
20260902233206 89 217 0.0 0.0 0.00 0.00 0.00 63 1008.9
20260902233103 89 217 0.0 0.0 0.00 0.00 0.00 63 1008.9
20260902233001 90 217 0.0 0.0 0.00 0.00 0.00 63 1008.9
20260902232637 90 220 0.0 0.0 0.00 0.00 0.00 63 1008.9
20260902232534 90 221 0.0 1.0 0.00 0.00 0.00 63 1008.9
20260902232429 90 223 0.0 1.0 0.00 0.00 0.00 63 1008.9
20260902232322 90 227 0.0 1.0 0.00 0.00 0.00 63 1008.9
20260902231736 90 194 0.0 0.0 0.00 0.00 0.00 63 1008.9
20260902231633 90 194 0.0 0.0 0.00 0.00 0.00 63 1008.9
20260902231528 90 194 0.0 0.0 0.00 0.00 0.00 62 1009.0
20260902231423 90 194 0.0 3.0 0.00 0.00 0.00 63 1008.9
20260902231321 90 194 0.0 3.0 0.00 0.00 0.00 62 1009.0
20260902231216 91 193 0.0 0.0 0.00 0.00 0.00 63 1009.0
20260902231109 91 193 0.0 0.0 0.00 0.00 0.00 63 1009.0
20260902231004 91 193 0.0 0.0 0.00 0.00 0.00 62 1008.9
20260902230859 91 215 0.0 0.0 0.00 0.00 0.00 62 1008.9
20260902230753 91 229 0.0 3.0 0.00 0.00 0.00 62 1008.9
20260902230646 91 229 0.0 3.0 0.00 0.00 0.00 62 1008.9
20260902230540 91 190 0.0 3.0 0.00 0.00 0.00 62 1008.9
20260902230215 91 212 1.0 3.0 0.00 0.00 0.00 61 1008.9
20260902230108 91 198 1.0 7.0 0.00 0.00 0.00 62 1008.9
20260902230005 91 198 1.0 7.0 0.00 0.00 0.00 61 1008.9
20260902225901 91 170 0.0 7.0 0.00 0.00 0.00 61 1008.9
20260902225753 91 205 0.0 7.0 0.00 0.00 0.00 61 1009.0
20260902225646 91 215 1.0 7.0 0.00 0.00 0.00 61 1008.9
20260902225542 91 230 1.0 7.0 0.00 0.00 0.00 61 1008.9
20260902225436 91 178 1.0 7.0 0.00 0.00 0.00 61 1008.9
20260902225111 91 219 0.0 7.0 0.00 0.00 0.00 61 1008.9
20260902224747 91 214 0.0 7.0 0.00 0.00 0.00 60 1008.9
20260902224645 91 208 0.0 7.0 0.00 0.00 0.00 60 1008.9
20260902224539 91 192 0.0 0.0 0.00 0.00 0.00 60 1008.8
20260902224436 91 193 0.0 0.0 0.00 0.00 0.00 61 1008.8
20260902224329 91 235 0.0 0.0 0.00 0.00 0.00 61 1008.8
20260902224222 91 211 0.0 7.0 0.00 0.00 0.00 61 1008.9
20260902224116 91 207 0.0 7.0 0.00 0.00 0.00 60 1008.8
20260902223747 92 237 1.0 7.0 0.00 0.00 0.00 60 1008.8
20260902223645 92 246 1.0 7.0 0.00 0.00 0.00 60 1008.8
20260902223539 92 205 1.0 7.0 0.00 0.00 0.00 60 1008.8
20260902223437 92 245 1.0 7.0 0.00 0.00 0.00 60 1008.8
20260902223333 92 221 1.0 7.0 0.00 0.00 0.00 61 1008.8
20260902223228 92 254 1.0 7.0 0.00 0.00 0.00 60 1008.8
20260902222904 92 194 2.0 7.0 0.00 0.00 0.00 60 1008.8
20260902222801 92 203 2.0 7.0 0.00 0.00 0.00 60 1008.9
20260902222657 92 224 2.0 7.0 0.00 0.00 0.00 59 1008.9
20260902222552 92 259 2.0 7.0 0.00 0.00 0.00 60 1008.9
20260902222445 92 220 2.0 7.0 0.00 0.00 0.00 60 1008.9
20260902222342 92 217 2.0 7.0 0.00 0.00 0.00 60 1009.0
20260902222240 92 281 2.0 7.0 0.00 0.00 0.00 60 1008.9
20260902221918 92 231 2.0 7.0 0.00 0.00 0.00 59 1008.9
20260902221815 92 280 1.0 6.0 0.00 0.00 0.00 59 1008.9
20260902221708 92 236 1.0 6.0 0.00 0.00 0.00 60 1008.9
20260902221604 92 200 1.0 3.0 0.00 0.00 0.00 60 1008.9
20260902221500 92 204 1.0 6.0 0.00 0.00 0.00 60 1009.0
20260902221356 92 209 2.0 6.0 0.00 0.00 0.00 60 1008.9
20260902221252 92 261 1.0 9.0 0.00 0.00 0.00 60 1008.9
20260902221150 92 228 1.0 9.0 0.00 0.00 0.00 60 1009.0
20260902221048 93 236 1.0 9.0 0.00 0.00 0.00 60 1009.0
20260902220942 92 236 1.0 9.0 0.00 0.00 0.00 59 1009.0
20260902220838 92 255 1.0 9.0 0.00 0.00 0.00 59 1009.0
20260902220732 92 250 1.0 9.0 0.00 0.00 0.00 59 1009.0
20260902220626 93 266 2.0 9.0 0.00 0.00 0.00 60 1008.9
20260902220521 92 211 2.0 9.0 0.00 0.00 0.00 59 1009.0
20260902220419 92 232 2.0 9.0 0.00 0.00 0.00 60 1008.9
20260902220314 92 229 2.0 9.0 0.00 0.00 0.00 60 1008.9
20260902220207 92 213 2.0 9.0 0.00 0.00 0.00 60 1008.9
20260902215958 92 213 3.0 9.0 0.00 0.00 0.00 59 1008.9
20260902215851 92 231 2.0 9.0 0.00 0.00 0.00 59 1008.9
20260902215745 92 270 2.0 9.0 0.00 0.00 0.00 59 1009.0
20260902215639 92 293 2.0 9.0 0.00 0.00 0.00 59 1008.9
20260902215535 92 263 2.0 9.0 0.00 0.00 0.00 59 1009.0
20260902215430 92 275 2.0 9.0 0.00 0.00 0.00 59 1009.0
20260902215324 92 265 1.0 9.0 0.00 0.00 0.00 59 1009.0
20260902215218 92 205 1.0 7.0 0.00 0.00 0.00 60 1009.0
20260902215113 92 257 1.0 7.0 0.00 0.00 0.00 59 1009.0
20260902214749 92 188 1.0 8.0 0.00 0.00 0.00 60 1009.1
20260902214643 92 260 1.0 8.0 0.00 0.00 0.00 60 1009.1
20260902214539 92 252 1.0 8.0 0.00 0.00 0.00 60 1009.1
20260902214436 92 260 1.0 8.0 0.00 0.00 0.00 60 1009.1
20260902214117 92 261 2.0 8.0 0.00 0.00 0.00 59 1009.1
20260902214011 92 234 2.0 8.0 0.00 0.00 0.00 60 1009.2
20260902213906 92 230 2.0 8.0 0.00 0.00 0.00 60 1009.1
20260902213537 92 281 2.0 8.0 0.00 0.00 0.00 59 1009.1
20260902213431 92 219 2.0 8.0 0.00 0.00 0.00 59 1009.1
20260902213107 92 248 2.0 8.0 0.00 0.00 0.00 58 1009.2
20260902213003 92 281 2.0 7.0 0.00 0.00 0.00 59 1009.1
20260902212422 93 261 2.0 7.0 0.00 0.00 0.00 59 1009.2
20260902211835 93 178 2.0 7.0 0.00 0.00 0.00 58 1009.3
20260902211730 93 251 2.0 7.0 0.00 0.00 0.00 59 1009.3
20260902211627 92 229 2.0 9.0 0.00 0.00 0.00 59 1009.3
20260902211521 92 234 2.0 9.0 0.00 0.00 0.00 60 1009.4
20260902211416 92 208 2.0 9.0 0.00 0.00 0.00 60 1009.4
20260902211311 92 220 2.0 9.0 0.00 0.00 0.00 59 1009.4
20260902211209 92 259 2.0 9.0 0.00 0.00 0.00 60 1009.4
20260902211101 92 252 2.0 9.0 0.00 0.00 0.00 59 1009.4
20260902210959 92 236 3.0 9.0 0.00 0.00 0.00 59 1009.4
20260902210851 92 277 3.0 9.0 0.00 0.00 0.00 60 1009.4
20260902210749 92 250 3.0 9.0 0.00 0.00 0.00 60 1009.4
20260902210643 92 249 4.0 9.0 0.00 0.00 0.00 59 1009.4
20260902210540 92 211 4.0 9.0 0.00 0.00 0.00 59 1009.4
20260902210437 92 246 4.0 9.0 0.00 0.00 0.00 58 1009.5
20260902210329 92 184 4.0 9.0 0.00 0.00 0.00 58 1009.4
20260902210227 92 298 4.0 9.0 0.00 0.00 0.00 59 1009.5
20260902210120 92 259 4.0 9.0 0.00 0.00 0.00 59 1009.5
20260902210018 92 240 4.0 9.0 0.00 0.00 0.00 59 1009.5
20260902205911 92 237 4.0 9.0 0.00 0.00 0.00 58 1009.5
20260902205807 92 271 4.0 9.0 0.00 0.00 0.00 59 1009.6
20260902205702 92 288 3.0 9.0 0.00 0.00 0.00 58 1009.5
20260902205556 92 276 3.0 9.0 0.00 0.00 0.00 59 1009.6
20260902205232 92 286 4.0 9.0 0.00 0.00 0.00 58 1009.5
20260902205125 92 246 3.0 9.0 0.00 0.00 0.00 58 1009.5
20260902205021 93 242 3.0 9.0 0.00 0.00 0.00 58 1009.5
20260902204918 93 257 3.0 9.0 0.00 0.00 0.00 58 1009.5
20260902204813 93 252 3.0 9.0 0.00 0.00 0.00 58 1009.6
20260902204448 93 232 3.0 9.0 0.00 0.00 0.00 58 1009.5
20260902204344 93 247 3.0 9.0 0.00 0.00 0.00 58 1009.6
20260902204237 93 290 3.0 9.0 0.00 0.00 0.00 58 1009.5
20260902204133 93 263 3.0 8.0 0.00 0.00 0.00 58 1009.6
20260902203811 93 239 3.0 7.0 0.00 0.00 0.00 58 1009.6
20260902203228 93 265 3.0 7.0 0.00 0.00 0.00 58 1009.7
20260902202903 93 241 2.0 7.0 0.00 0.00 0.00 59 1009.8
20260902202758 93 298 2.0 7.0 0.00 0.00 0.00 58 1009.8
20260902202652 93 273 2.0 7.0 0.00 0.00 0.00 59 1009.8
20260902202545 92 175 2.0 9.0 0.00 0.00 0.00 59 1009.7
20260902202442 92 276 3.0 9.0 0.00 0.00 0.00 58 1009.8
20260902202337 92 219 2.0 9.0 0.00 0.00 0.00 59 1009.8
20260902202233 92 253 2.0 9.0 0.00 0.00 0.00 58 1009.8
20260902202127 93 245 2.0 9.0 0.00 0.00 0.00 59 1009.8
20260902202022 93 263 3.0 9.0 0.00 0.00 0.00 58 1009.9
20260902201920 93 256 3.0 9.0 0.00 0.00 0.00 58 1009.9
20260902201336 93 200 3.0 9.0 0.00 0.00 0.00 58 1010.0
20260902201232 93 221 3.0 9.0 0.00 0.00 0.00 58 1010.0
20260902201125 93 246 3.0 9.0 0.00 0.00 0.00 58 1010.0
20260902201020 93 258 3.0 9.0 0.00 0.00 0.00 58 1010.0
20260902200917 93 231 3.0 9.0 0.00 0.00 0.00 58 1010.0
20260902200812 93 212 3.0 9.0 0.00 0.00 0.00 58 1010.0
20260902200705 93 185 3.0 9.0 0.00 0.00 0.00 58 1010.1
20260902200559 93 234 3.0 7.0 0.00 0.00 0.00 58 1010.1
20260902200456 93 217 3.0 7.0 0.00 0.00 0.00 58 1010.1
20260902200352 93 257 3.0 7.0 0.00 0.00 0.00 59 1010.1
20260902200248 92 229 3.0 7.0 0.00 0.00 0.00 59 1010.1
20260902200144 92 196 3.0 7.0 0.00 0.00 0.00 58 1010.1
20260902200041 92 200 2.0 7.0 0.00 0.00 0.00 58 1010.1
20260902195939 92 242 2.0 7.0 0.00 0.00 0.00 58 1010.1
20260902195832 92 284 2.0 7.0 0.00 0.00 0.00 58 1010.1
20260902195726 92 244 2.0 7.0 0.00 0.00 0.00 59 1010.1
20260902195618 92 192 2.0 12.0 0.00 0.00 0.00 59 1010.1
20260902195513 92 246 2.0 12.0 0.00 0.00 0.00 59 1010.1
20260902195411 92 220 2.0 12.0 0.00 0.00 0.00 58 1010.2
20260902195307 92 261 2.0 12.0 0.00 0.00 0.00 59 1010.2
20260902195205 92 222 2.0 12.0 0.00 0.00 0.00 61 1010.2
20260902195059 92 234 2.0 12.0 0.00 0.00 0.00 58 1010.2
20260902194953 92 202 2.0 12.0 0.00 0.00 0.00 59 1010.2
20260902194851 92 237 3.0 12.0 0.00 0.00 0.00 59 1010.2
20260902194746 92 215 3.0 12.0 0.00 0.00 0.00 58 1010.3
20260902194643 92 250 3.0 12.0 0.00 0.00 0.00 58 1010.3
20260902194538 92 142 4.0 12.0 0.00 0.00 0.00 59 1010.3
20260902194435 92 248 4.0 12.0 0.00 0.00 0.00 59 1010.3
20260902194329 92 216 5.0 12.0 0.00 0.00 0.00 59 1010.3
20260902194222 92 168 5.0 12.0 0.00 0.00 0.00 58 1010.3
20260902193856 92 268 4.0 12.0 0.00 0.00 0.00 58 1010.3
20260902193749 92 277 4.0 12.0 0.00 0.00 0.00 59 1010.4
20260902193647 92 280 4.0 12.0 0.00 0.00 0.00 58 1010.3
20260902193543 92 282 4.0 10.0 0.00 0.00 0.00 59 1010.4
20260902193438 93 257 4.0 10.0 0.00 0.00 0.00 58 1010.4
20260902193336 93 264 3.0 10.0 0.00 0.00 0.00 58 1010.5
20260902193231 93 276 3.0 10.0 0.00 0.00 0.00 59 1010.5
20260902193128 93 315 3.0 10.0 0.00 0.00 0.00 61 1010.4
20260902192802 92 244 4.0 9.0 0.00 0.00 0.00 59 1010.5
20260902192439 92 240 3.0 11.0 0.00 0.00 0.00 59 1010.5
20260902192336 92 274 3.0 11.0 0.00 0.00 0.00 61 1010.5
20260902192233 92 296 3.0 11.0 0.00 0.00 0.00 59 1010.5
20260902192131 92 290 3.0 11.0 0.00 0.00 0.00 58 1010.5
20260902192024 92 210 2.0 11.0 0.00 0.00 0.00 60 1010.6
20260902191218 92 224 3.0 11.0 0.00 0.00 0.00 60 1010.6
20260902191113 92 297 3.0 11.0 0.00 0.00 0.00 59 1010.6
20260902191006 92 298 3.0 11.0 0.00 0.00 0.00 58 1010.6
20260902190903 92 279 3.0 11.0 0.00 0.00 0.00 58 1010.7
20260902190758 92 188 4.0 11.0 0.00 0.00 0.00 58 1010.7
20260902190434 92 281 3.0 10.0 0.00 0.00 0.00 58 1010.6
20260902190328 92 234 3.0 7.0 0.00 0.00 0.00 58 1010.7
20260902190222 92 227 3.0 7.0 0.00 0.00 0.00 58 1010.7
20260902190115 92 294 3.0 7.0 0.00 0.00 0.00 58 1010.7
20260902190009 92 267 3.0 8.0 0.00 0.00 0.00 57 1010.7
20260902185902 92 206 3.0 8.0 0.00 0.00 0.00 58 1010.7
20260902185755 92 281 3.0 8.0 0.00 0.00 0.00 59 1010.7
20260902185652 92 230 3.0 8.0 0.00 0.00 0.00 59 1010.7
20260902185549 92 284 3.0 8.0 0.00 0.00 0.00 58 1010.7
20260902185446 92 263 3.0 8.0 0.00 0.00 0.00 58 1010.7
20260902184901 92 235 2.0 8.0 0.00 0.00 0.00 59 1010.6
20260902184756 92 256 2.0 8.0 0.00 0.00 0.00 59 1010.6
20260902184654 92 234 2.0 8.0 0.00 0.00 0.00 61 1010.6
20260902184332 92 256 2.0 8.0 0.00 0.00 0.00 61 1010.6
20260902184226 92 242 2.0 8.0 0.00 0.00 0.00 59 1010.6
20260902184120 92 265 2.0 8.0 0.00 0.00 0.00 60 1010.6
20260902184018 91 263 1.0 6.0 0.00 0.00 0.00 59 1010.7
20260902183651 91 273 2.0 7.0 0.00 0.00 0.00 60 1010.7
20260902183546 91 315 2.0 7.0 0.00 0.00 0.00 59 1010.8
20260902183442 91 257 2.0 7.0 0.00 0.00 0.00 60 1010.7
20260902183337 91 244 2.0 7.0 0.00 0.00 0.00 60 1010.7
20260902183235 91 258 2.0 7.0 0.00 0.00 0.00 59 1010.8
20260902183129 91 250 2.0 7.0 0.00 0.00 0.00 61 1010.8
20260902183021 91 248 3.0 7.0 0.00 0.00 0.00 60 1010.8
20260902182915 92 255 3.0 7.0 0.00 0.00 0.00 60 1010.9
20260902182808 92 261 3.0 7.0 0.00 0.00 0.00 61 1010.8
20260902182706 92 234 3.0 7.0 0.00 0.00 0.00 60 1010.8
20260902182602 92 233 3.0 7.0 0.00 0.00 0.00 60 1010.9
20260902182455 92 290 3.0 7.0 0.00 0.00 0.00 58 1010.9
20260902182353 92 266 3.0 7.0 0.00 0.00 0.00 59 1010.9
20260902182030 91 281 3.0 7.0 0.00 0.00 0.00 60 1010.9
20260902181923 91 265 3.0 10.0 0.00 0.00 0.00 60 1011.0
20260902181817 91 290 3.0 10.0 0.00 0.00 0.00 60 1011.0
20260902181713 91 275 4.0 10.0 0.00 0.00 0.00 59 1011.0
20260902181611 91 263 4.0 10.0 0.00 0.00 0.00 60 1010.9
20260902181243 91 277 5.0 10.0 0.00 0.00 0.00 59 1011.0
20260902181137 91 244 5.0 10.0 0.00 0.00 0.00 59 1011.0
20260902181029 91 288 5.0 10.0 0.00 0.00 0.00 58 1011.0
20260902180704 91 0 4.0 10.0 0.00 0.00 0.00 58 1011.0
20260902180601 91 274 4.0 10.0 0.00 0.00 0.00 58 1011.0
20260902180454 91 281 4.0 10.0 0.00 0.00 0.00 58 1011.0
20260902180347 91 273 4.0 10.0 0.00 0.00 0.00 58 1011.0
20260902180243 91 0 4.0 10.0 0.00 0.00 0.00 60 1011.1
20260902180138 91 234 4.0 10.0 0.00 0.00 0.00 58 1011.1
20260902180034 91 250 4.0 10.0 0.00 0.00 0.00 58 1011.1
20260902175926 91 295 4.0 9.0 0.00 0.00 0.00 59 1011.1
20260902175819 91 259 4.0 9.0 0.00 0.00 0.00 58 1011.1
20260902175714 91 230 3.0 9.0 0.00 0.00 0.00 59 1011.1
20260902175609 91 279 3.0 9.0 0.00 0.00 0.00 60 1011.1
20260902175244 91 290 4.0 9.0 0.00 0.00 0.00 59 1011.1
20260902175140 91 258 4.0 9.0 0.00 0.00 0.00 58 1011.2
20260902175037 91 265 4.0 9.0 0.00 0.00 0.00 59 1011.3
20260902174930 91 245 4.0 9.0 0.00 0.00 0.00 61 1011.3
20260902174824 91 270 4.0 9.0 0.00 0.00 0.00 61 1011.3
20260902174718 91 278 5.0 9.0 0.00 0.00 0.00 59 1011.3
20260902174616 91 284 5.0 9.0 0.00 0.00 0.00 59 1011.3
20260902174509 91 288 5.0 9.0 0.00 0.00 0.00 59 1011.3
20260902174406 91 296 5.0 8.0 0.00 0.00 0.00 59 1011.3
20260902174302 91 307 5.0 8.0 0.00 0.00 0.00 61 1011.3
20260902174158 91 281 4.0 11.0 0.00 0.00 0.00 61 1011.3
20260902174055 91 287 4.0 11.0 0.00 0.00 0.00 61 1011.3
20260902173949 90 301 4.0 11.0 0.00 0.00 0.00 60 1011.3
20260902173626 91 281 4.0 11.0 0.00 0.00 0.00 59 1011.3
20260902173523 91 331 4.0 11.0 0.00 0.00 0.00 61 1011.4
20260902173415 91 281 4.0 11.0 0.00 0.00 0.00 60 1011.4
20260902173051 91 249 5.0 13.0 0.00 0.00 0.00 61 1011.5
20260902172724 90 255 5.0 13.0 0.00 0.00 0.00 61 1011.5
20260902172619 90 279 5.0 13.0 0.00 0.00 0.00 61 1011.6
20260902172517 90 246 5.0 13.0 0.00 0.00 0.00 60 1011.5
20260902172411 90 307 5.0 13.0 0.00 0.00 0.00 60 1011.5
20260902172308 90 274 5.0 13.0 0.00 0.00 0.00 61 1011.5
20260902172201 90 278 6.0 13.0 0.00 0.00 0.00 59 1011.5
20260902172057 90 289 6.0 13.0 0.00 0.00 0.00 59 1011.6
20260902171955 90 273 6.0 13.0 0.00 0.00 0.00 59 1011.5
20260902171850 90 314 6.0 13.0 0.00 0.00 0.00 60 1011.5
20260902171745 90 269 6.0 13.0 0.00 0.00 0.00 60 1011.6
20260902171639 90 287 6.0 13.0 0.00 0.00 0.00 59 1011.5
20260902171537 90 289 6.0 13.0 0.00 0.00 0.00 59 1011.5
20260902171434 90 266 6.0 13.0 0.00 0.00 0.00 59 1011.6
20260902171327 90 266 6.0 13.0 0.00 0.00 0.00 59 1011.6
20260902171223 90 254 5.0 13.0 0.00 0.00 0.00 58 1011.5
20260902171118 90 267 5.0 12.0 0.00 0.00 0.00 59 1011.6
20260902171013 90 246 5.0 12.0 0.00 0.00 0.00 59 1011.6
20260902170908 90 262 5.0 12.0 0.00 0.00 0.00 59 1011.6
20260902170804 90 277 4.0 12.0 0.00 0.00 0.00 59 1011.6
20260902170438 90 289 3.0 12.0 0.00 0.00 0.00 62 1011.6
20260902170335 90 268 3.0 12.0 0.00 0.00 0.00 62 1011.6
20260902170014 90 261 3.0 9.0 0.00 0.00 0.00 62 1011.6
20260902165206 91 259 2.0 8.0 0.00 0.00 0.00 61 1011.7
20260902165059 90 265 2.0 6.0 0.00 0.00 0.00 60 1011.6
20260902164955 90 194 2.0 6.0 0.00 0.00 0.00 61 1011.6
20260902164849 91 158 1.0 6.0 0.00 0.00 0.00 61 1011.6
20260902164742 90 180 1.0 6.0 0.00 0.00 0.00 61 1011.6
20260902164639 90 185 1.0 8.0 0.00 0.00 0.00 62 1011.6
20260902164313 90 172 1.0 8.0 0.00 0.00 0.00 62 1011.7
20260902164211 90 195 1.0 8.0 0.00 0.00 0.00 63 1011.7
20260902164109 90 173 2.0 8.0 0.00 0.00 0.00 63 1011.7
20260902164006 90 186 2.0 8.0 0.00 0.00 0.00 63 1011.7
20260902163859 90 221 2.0 8.0 0.00 0.00 0.00 63 1011.7
20260902163534 90 189 2.0 8.0 0.00 0.00 0.00 64 1011.7
20260902163428 90 219 2.0 8.0 0.00 0.00 0.00 64 1011.7
20260902163325 90 279 2.0 8.0 0.00 0.00 0.00 63 1011.7
20260902163000 90 221 2.0 8.0 0.00 0.00 0.00 63 1011.7
20260902162856 90 209 2.0 8.0 0.00 0.00 0.00 63 1011.8
20260902162750 90 252 1.0 8.0 0.00 0.00 0.00 64 1011.7
20260902162644 90 241 1.0 6.0 0.00 0.00 0.00 64 1011.7
20260902162537 90 252 1.0 6.0 0.00 0.00 0.00 64 1011.6
20260902162432 90 219 1.0 6.0 0.00 0.00 0.00 65 1011.7
20260902162330 89 224 1.0 8.0 0.00 0.00 0.00 65 1011.7
20260902162227 89 226 1.0 8.0 0.00 0.00 0.00 64 1011.7
20260902162124 89 220 1.0 8.0 0.00 0.00 0.00 65 1011.8
20260902162017 89 269 1.0 8.0 0.00 0.00 0.00 66 1011.7
20260902161912 89 269 2.0 8.0 0.00 0.00 0.00 66 1011.8
20260902161808 89 263 2.0 8.0 0.00 0.00 0.00 67 1011.8
20260902161700 89 263 3.0 8.0 0.00 0.00 0.00 67 1011.8
20260902161332 89 290 3.0 9.0 0.00 0.00 0.00 64 1011.8
20260902161012 89 279 3.0 9.0 0.00 0.00 0.00 65 1011.8
20260902160909 89 269 3.0 9.0 0.00 0.00 0.00 65 1011.8
20260902160806 89 0 3.0 9.0 0.00 0.00 0.00 64 1011.8
20260902160225 88 285 2.0 7.0 0.00 0.00 0.00 66 1011.8
20260902160122 88 290 2.0 7.0 0.00 0.00 0.00 68 1011.8
20260902160016 88 225 2.0 7.0 0.00 0.00 0.00 67 1011.9
20260902155909 88 215 2.0 7.0 0.00 0.00 0.00 67 1011.8
20260902155804 88 268 2.0 7.0 0.00 0.00 0.00 68 1011.8
20260902155701 88 273 2.0 7.0 0.00 0.00 0.00 67 1011.8
20260902155559 88 230 2.0 7.0 0.00 0.00 0.00 67 1011.8
20260902155456 88 253 2.0 7.0 0.00 0.00 0.00 67 1011.8
20260902155351 88 271 2.0 7.0 0.00 0.00 0.00 68 1011.8
20260902155244 88 259 2.0 5.0 0.00 0.00 0.00 67 1011.8
20260902155137 88 251 2.0 9.0 0.00 0.00 0.00 69 1011.9
20260902155031 88 250 3.0 9.0 0.00 0.00 0.00 67 1011.8
20260902154928 88 227 2.0 8.0 0.00 0.00 0.00 67 1011.8
20260902154607 88 279 3.0 10.0 0.00 0.00 0.00 66 1011.9
20260902154459 88 248 3.0 10.0 0.00 0.00 0.00 66 1011.9
20260902154355 88 272 3.0 10.0 0.00 0.00 0.00 66 1011.9
20260902154252 88 240 3.0 10.0 0.00 0.00 0.00 67 1011.9
20260902154147 87 262 3.0 10.0 0.00 0.00 0.00 66 1011.9
20260902154043 87 301 3.0 10.0 0.00 0.00 0.00 67 1012.0
20260902153938 87 0 3.0 10.0 0.00 0.00 0.00 67 1012.0
20260902153833 87 302 4.0 10.0 0.00 0.00 0.00 66 1012.0
20260902153509 87 229 3.0 10.0 0.00 0.00 0.00 66 1012.0
20260902153402 87 246 3.0 10.0 0.00 0.00 0.00 67 1012.0
20260902153255 87 282 3.0 10.0 0.00 0.00 0.00 69 1012.0
20260902153151 87 265 3.0 10.0 0.00 0.00 0.00 69 1012.0
20260902153047 87 281 3.0 10.0 0.00 0.00 0.00 68 1012.0
20260902152943 87 253 3.0 10.0 0.00 0.00 0.00 68 1012.0
20260902152617 87 273 2.0 9.0 0.00 0.00 0.00 69 1012.0
20260902152253 87 242 2.0 9.0 0.00 0.00 0.00 69 1012.0
20260902152149 87 265 2.0 9.0 0.00 0.00 0.00 68 1011.9
20260902152045 87 239 2.0 9.0 0.00 0.00 0.00 69 1012.0
20260902151941 87 246 2.0 7.0 0.00 0.00 0.00 71 1012.0
20260902151834 87 250 2.0 7.0 0.00 0.00 0.00 71 1012.0
20260902151508 86 259 3.0 9.0 0.00 0.00 0.00 72 1012.0
20260902151145 86 310 3.0 9.0 0.00 0.00 0.00 70 1012.0
20260902150822 86 285 3.0 9.0 0.00 0.00 0.00 71 1011.9
20260902150715 86 256 3.0 9.0 0.00 0.00 0.00 71 1011.9
20260902150609 86 234 3.0 9.0 0.00 0.00 0.00 71 1012.0
20260902150505 86 273 3.0 9.0 0.00 0.00 0.00 71 1011.9
20260902150402 86 257 3.0 9.0 0.00 0.00 0.00 71 1012.0
20260902150032 86 302 3.0 9.0 0.00 0.00 0.00 70 1012.0
20260902145927 86 263 2.0 9.0 0.00 0.00 0.00 69 1011.9
20260902145825 86 246 2.0 9.0 0.00 0.00 0.00 70 1011.9
20260902145719 86 281 2.0 9.0 0.00 0.00 0.00 74 1011.9
20260902145616 86 279 1.0 6.0 0.00 0.00 0.00 72 1011.9
20260902145251 85 284 2.0 6.0 0.00 0.00 0.00 72 1011.9
20260902145144 85 267 2.0 7.0 0.00 0.00 0.00 73 1011.9
20260902145040 85 277 2.0 7.0 0.00 0.00 0.00 74 1011.9
20260902144934 85 278 2.0 7.0 0.00 0.00 0.00 74 1011.9
20260902144827 85 257 2.0 7.0 0.00 0.00 0.00 73 1011.9
20260902144724 85 242 2.0 7.0 0.00 0.00 0.00 74 1011.9
20260902144359 85 302 2.0 7.0 0.00 0.00 0.00 74 1012.0
20260902144254 85 304 2.0 7.0 0.00 0.00 0.00 74 1011.9
20260902144151 85 296 2.0 7.0 0.00 0.00 0.00 74 1011.9
20260902144044 85 259 2.0 7.0 0.00 0.00 0.00 74 1011.9
20260902143943 84 259 2.0 7.0 0.00 0.00 0.00 74 1011.9
20260902143835 84 263 2.0 7.0 0.00 0.00 0.00 75 1011.9
20260902143728 84 286 2.0 7.0 0.00 0.00 0.00 74 1012.0
20260902143625 84 288 3.0 7.0 0.00 0.00 0.00 74 1012.0
20260902143516 84 286 2.0 7.0 0.00 0.00 0.00 75 1012.0
20260902143414 84 294 2.0 7.0 0.00 0.00 0.00 74 1011.9
20260902143307 84 270 2.0 7.0 0.00 0.00 0.00 74 1011.9
20260902142942 84 255 2.0 6.0 0.00 0.00 0.00 76 1011.9
20260902142834 84 294 2.0 6.0 0.00 0.00 0.00 74 1011.9
20260902142727 84 277 2.0 4.0 0.00 0.00 0.00 76 1011.9
20260902142623 84 280 2.0 4.0 0.00 0.00 0.00 76 1011.9
20260902142256 84 293 2.0 7.0 0.00 0.00 0.00 76 1011.9
20260902142153 83 292 2.0 7.0 0.00 0.00 0.00 75 1011.8
20260902141826 83 277 2.0 6.0 0.00 0.00 0.00 76 1011.9
20260902141723 83 281 2.0 6.0 0.00 0.00 0.00 76 1011.9
20260902141620 83 284 1.0 6.0 0.00 0.00 0.00 77 1011.9
20260902141517 83 275 1.0 6.0 0.00 0.00 0.00 78 1011.9
20260902141413 83 276 2.0 6.0 0.00 0.00 0.00 77 1011.8
20260902140607 82 273 2.0 5.0 0.00 0.00 0.00 77 1011.8
20260902140505 82 287 2.0 5.0 0.00 0.00 0.00 78 1011.9
20260902140359 82 264 2.0 5.0 0.00 0.00 0.00 78 1011.8
20260902140253 82 284 2.0 5.0 0.00 0.00 0.00 79 1011.8
20260902140149 82 278 2.0 5.0 0.00 0.00 0.00 79 1011.8
20260902140047 82 278 2.0 5.0 0.00 0.00 0.00 78 1011.7
20260902135945 82 279 2.0 5.0 0.00 0.00 0.00 79 1011.8
20260902135840 82 270 2.0 5.0 0.00 0.00 0.00 79 1011.8
20260902135737 82 286 2.0 5.0 0.00 0.00 0.00 79 1011.8
20260902135631 82 271 2.0 5.0 0.00 0.00 0.00 80 1011.8
20260902135524 82 286 2.0 5.0 0.00 0.00 0.00 79 1011.7
20260902135417 82 287 2.0 5.0 0.00 0.00 0.00 79 1011.7
20260902135313 81 279 2.0 5.0 0.00 0.00 0.00 78 1011.8
20260902135207 81 274 1.0 5.0 0.00 0.00 0.00 79 1011.8
20260902135102 81 295 1.0 5.0 0.00 0.00 0.00 79 1011.7
20260902134022 81 246 0.0 5.0 0.00 0.00 0.00 80 1011.7
20260902133915 81 275 0.0 4.0 0.00 0.00 0.00 81 1011.7
20260902133812 81 261 0.0 2.0 0.00 0.00 0.00 80 1011.7
20260902133705 81 273 0.0 2.0 0.00 0.00 0.00 81 1011.7
20260902133559 81 271 0.0 3.0 0.00 0.00 0.00 80 1011.7
20260902133454 81 271 0.0 3.0 0.00 0.00 0.00 81 1011.7
20260902133348 81 295 0.0 2.0 0.00 0.00 0.00 81 1011.7
20260902133241 81 288 0.0 2.0 0.00 0.00 0.00 81 1011.8
20260902133135 81 288 0.0 2.0 0.00 0.00 0.00 81 1011.7
20260902133031 81 289 0.0 2.0 0.00 0.00 0.00 81 1011.8
20260902132710 81 321 0.0 0.0 0.00 0.00 0.00 81 1011.9
20260902132603 81 321 0.0 3.0 0.00 0.00 0.00 81 1011.9
20260902132501 81 322 0.0 3.0 0.00 0.00 0.00 80 1012.0
20260902132356 81 323 0.0 3.0 0.00 0.00 0.00 80 1012.0
20260902132251 81 325 0.0 3.0 0.00 0.00 0.00 81 1012.0
20260902132148 81 325 0.0 3.0 0.00 0.00 0.00 81 1012.0
20260902131822 81 328 0.0 0.0 0.00 0.00 0.00 81 1012.0
20260902131715 81 328 0.0 0.0 0.00 0.00 0.00 82 1012.0
20260902131612 80 329 0.0 0.0 0.00 0.00 0.00 81 1012.1
20260902131510 80 329 0.0 6.0 0.00 0.00 0.00 81 1012.1
20260902131408 80 328 0.0 6.0 0.00 0.00 0.00 82 1012.1
20260902131306 80 333 0.0 6.0 0.00 0.00 0.00 82 1012.1
20260902131201 80 273 0.0 6.0 0.00 0.00 0.00 82 1012.1
20260902130839 80 269 0.0 5.0 0.00 0.00 0.00 81 1011.9
20260902130518 80 279 0.0 0.0 0.00 0.00 0.00 82 1011.9
20260902130411 80 290 0.0 0.0 0.00 0.00 0.00 83 1011.9
20260902130309 80 290 0.0 0.0 0.00 0.00 0.00 83 1011.9
20260902125944 79 293 0.0 0.0 0.00 0.00 0.00 83 1011.9
20260902125841 79 301 0.0 0.0 0.00 0.00 0.00 83 1011.8
20260902125511 79 272 0.0 0.0 0.00 0.00 0.00 83 1011.8
20260902125405 79 271 0.0 0.0 0.00 0.00 0.00 83 1011.8
20260902125258 79 269 0.0 0.0 0.00 0.00 0.00 84 1011.7
20260902124937 79 271 0.0 0.0 0.00 0.00 0.00 83 1011.8
20260902124832 79 271 0.0 0.0 0.00 0.00 0.00 84 1011.8
20260902124725 79 272 0.0 0.0 0.00 0.00 0.00 84 1011.8
20260902124619 79 272 0.0 0.0 0.00 0.00 0.00 84 1011.8
20260902124518 79 272 0.0 0.0 0.00 0.00 0.00 84 1011.8
20260902124415 79 272 0.0 0.0 0.00 0.00 0.00 84 1011.8
20260902124310 79 272 0.0 0.0 0.00 0.00 0.00 84 1011.7
20260902124207 79 272 0.0 0.0 0.00 0.00 0.00 84 1011.7
20260902124100 79 272 0.0 0.0 0.00 0.00 0.00 84 1011.7
20260902123957 78 273 0.0 0.0 0.00 0.00 0.00 84 1011.7
20260902123849 78 273 0.0 0.0 0.00 0.00 0.00 84 1011.7
20260902123741 78 268 0.0 0.0 0.00 0.00 0.00 84 1011.7
20260902123635 78 283 0.0 0.0 0.00 0.00 0.00 84 1011.7
20260902123533 78 284 0.0 0.0 0.00 0.00 0.00 84 1011.8
20260902123428 78 284 0.0 0.0 0.00 0.00 0.00 84 1011.8
20260902123106 78 284 0.0 0.0 0.00 0.00 0.00 85 1011.8
20260902123000 78 281 0.0 0.0 0.00 0.00 0.00 85 1011.8
20260902122853 78 281 0.0 0.0 0.00 0.00 0.00 86 1011.8
20260902122747 78 281 0.0 0.0 0.00 0.00 0.00 86 1011.8
20260902122642 78 281 0.0 0.0 0.00 0.00 0.00 86 1011.7
20260902122539 78 281 0.0 0.0 0.00 0.00 0.00 86 1011.7
20260902122212 77 281 0.0 0.0 0.00 0.00 0.00 86 1011.7
20260902122110 77 281 0.0 0.0 0.00 0.00 0.00 86 1011.7
20260902122006 77 281 0.0 0.0 0.00 0.00 0.00 86 1011.7
20260902121902 77 281 0.0 0.0 0.00 0.00 0.00 86 1011.7
20260902121800 77 281 0.0 0.0 0.00 0.00 0.00 86 1011.7
20260902121655 77 281 0.0 0.0 0.00 0.00 0.00 87 1011.7
20260902121327 77 282 0.0 0.0 0.00 0.00 0.00 87 1011.7
20260902121000 76 281 0.0 0.0 0.00 0.00 0.00 88 1011.7
20260902120856 76 281 0.0 0.0 0.00 0.00 0.00 88 1011.7
20260902120751 76 281 0.0 0.0 0.00 0.00 0.00 88 1011.7
20260902120648 76 281 0.0 0.0 0.00 0.00 0.00 88 1011.7
20260902120546 76 281 0.0 0.0 0.00 0.00 0.00 88 1011.7
20260902120440 76 281 0.0 0.0 0.00 0.00 0.00 88 1011.7
20260902120332 76 281 0.0 0.0 0.00 0.00 0.00 88 1011.7
20260902115750 76 281 0.0 0.0 0.00 0.00 0.00 88 1011.7
20260902115645 75 281 0.0 0.0 0.00 0.00 0.00 88 1011.7
20260902115539 75 281 0.0 0.0 0.00 0.00 0.00 88 1011.7
20260902115434 75 281 0.0 0.0 0.00 0.00 0.00 88 1011.6
20260902115327 75 281 0.0 0.0 0.00 0.00 0.00 88 1011.6
20260902115219 75 281 0.0 0.0 0.00 0.00 0.00 88 1011.7
20260902114852 75 281 0.0 0.0 0.00 0.00 0.00 88 1011.7
20260902114527 75 281 0.0 0.0 0.00 0.00 0.00 88 1011.6
20260902114422 75 281 0.0 0.0 0.00 0.00 0.00 88 1011.6
20260902113608 75 281 0.0 0.0 0.00 0.00 0.00 87 1011.6
20260902113506 75 281 0.0 0.0 0.00 0.00 0.00 87 1011.6
20260902113403 76 281 0.0 0.0 0.00 0.00 0.00 88 1011.6
20260902113259 76 281 0.0 0.0 0.00 0.00 0.00 87 1011.6
20260902113152 76 281 0.0 0.0 0.00 0.00 0.00 87 1011.6
20260902113048 76 281 0.0 0.0 0.00 0.00 0.00 87 1011.7
20260902112720 76 281 0.0 0.0 0.00 0.00 0.00 87 1011.7
20260902112617 76 281 0.0 0.0 0.00 0.00 0.00 87 1011.7
20260902112510 76 281 0.0 0.0 0.00 0.00 0.00 87 1011.7
20260902112405 76 281 0.0 0.0 0.00 0.00 0.00 86 1011.7
20260902112259 76 281 0.0 0.0 0.00 0.00 0.00 86 1011.7
20260902111930 76 282 0.0 0.0 0.00 0.00 0.00 86 1011.7
20260902111822 76 282 0.0 0.0 0.00 0.00 0.00 86 1011.7
20260902111453 76 282 0.0 0.0 0.00 0.00 0.00 86 1011.7
20260902111349 76 282 0.0 0.0 0.00 0.00 0.00 86 1011.7
20260902111245 76 282 0.0 0.0 0.00 0.00 0.00 86 1011.7
20260902110653 77 282 0.0 0.0 0.00 0.00 0.00 85 1011.8
20260902110549 77 282 0.0 0.0 0.00 0.00 0.00 85 1011.8
20260902110446 77 282 0.0 0.0 0.00 0.00 0.00 85 1011.8
20260902110341 77 282 0.0 0.0 0.00 0.00 0.00 85 1011.8
20260902110234 77 282 0.0 0.0 0.00 0.00 0.00 85 1011.8
20260902105909 77 280 0.0 0.0 0.00 0.00 0.00 85 1011.8
20260902105807 77 279 0.0 0.0 0.00 0.00 0.00 85 1011.8
20260902105439 77 279 0.0 0.0 0.00 0.00 0.00 85 1011.9
20260902105336 77 279 0.0 0.0 0.00 0.00 0.00 85 1012.0
20260902105232 77 282 0.0 0.0 0.00 0.00 0.00 85 1011.9
20260902104907 77 283 0.0 0.0 0.00 0.00 0.00 85 1011.9
20260902104540 77 286 0.0 3.0 0.00 0.00 0.00 85 1011.9
20260902104434 77 286 0.0 3.0 0.00 0.00 0.00 85 1011.9
20260902104330 77 257 0.0 2.0 0.00 0.00 0.00 85 1011.9
20260902104225 77 226 0.0 0.0 0.00 0.00 0.00 85 1011.9
20260902104122 77 226 0.0 0.0 0.00 0.00 0.00 85 1011.9
20260902103752 77 226 0.0 0.0 0.00 0.00 0.00 85 1011.9
20260902103646 77 215 0.0 0.0 0.00 0.00 0.00 85 1012.0
20260902103543 77 215 0.0 0.0 0.00 0.00 0.00 85 1011.9
20260902103436 77 215 0.0 0.0 0.00 0.00 0.00 85 1011.9
20260902103329 78 215 0.0 0.0 0.00 0.00 0.00 85 1011.9
20260902103223 77 215 0.0 0.0 0.00 0.00 0.00 85 1011.9
20260902103120 78 211 0.0 0.0 0.00 0.00 0.00 85 1011.8
20260902103015 78 211 0.0 0.0 0.00 0.00 0.00 85 1011.8
20260902102654 78 250 0.0 0.0 0.00 0.00 0.00 85 1011.8
20260902102327 78 263 0.0 0.0 0.00 0.00 0.00 85 1011.8
20260902102221 78 263 0.0 1.0 0.00 0.00 0.00 85 1011.8
20260902102114 78 259 0.0 1.0 0.00 0.00 0.00 85 1011.7
20260902101748 78 170 0.0 0.0 0.00 0.00 0.00 86 1011.7
20260902101642 77 157 0.0 0.0 0.00 0.00 0.00 86 1011.7
20260902101540 77 277 0.0 0.0 0.00 0.00 0.00 86 1011.7
20260902101218 77 278 0.0 2.0 0.00 0.00 0.00 86 1011.7
20260902101111 77 245 0.0 2.0 0.00 0.00 0.00 86 1011.6
20260902101007 77 254 0.0 4.0 0.00 0.00 0.00 86 1011.6
20260902100859 77 254 0.0 4.0 0.00 0.00 0.00 86 1011.6
20260902100757 77 254 0.0 3.0 0.00 0.00 0.00 86 1011.6
20260902100654 77 247 0.0 3.0 0.00 0.00 0.00 86 1011.6
20260902100553 77 247 0.0 3.0 0.00 0.00 0.00 86 1011.7
20260902100446 77 261 0.0 0.0 0.00 0.00 0.00 86 1011.6
20260902100342 77 253 0.0 0.0 0.00 0.00 0.00 86 1011.6
20260902100236 77 253 0.0 0.0 0.00 0.00 0.00 86 1011.6
20260902100132 77 254 0.0 0.0 0.00 0.00 0.00 86 1011.6
20260902095551 77 252 0.0 0.0 0.00 0.00 0.00 86 1011.6
20260902095447 77 252 0.0 0.0 0.00 0.00 0.00 86 1011.6
20260902095341 77 252 0.0 0.0 0.00 0.00 0.00 87 1011.6
20260902095016 77 248 0.0 0.0 0.00 0.00 0.00 86 1011.6
20260902094913 77 253 0.0 0.0 0.00 0.00 0.00 86 1011.5
20260902094548 78 253 0.0 0.0 0.00 0.00 0.00 86 1011.5
20260902094445 78 254 0.0 0.0 0.00 0.00 0.00 86 1011.4
20260902094340 78 254 0.0 0.0 0.00 0.00 0.00 86 1011.5
20260902094233 78 254 0.0 0.0 0.00 0.00 0.00 86 1011.5
20260902094131 78 254 0.0 0.0 0.00 0.00 0.00 86 1011.5
20260902093803 78 254 0.0 0.0 0.00 0.00 0.00 86 1011.4
20260902093656 78 254 0.0 0.0 0.00 0.00 0.00 86 1011.5
20260902093333 78 254 0.0 0.0 0.00 0.00 0.00 85 1011.4
20260902093226 78 254 0.0 0.0 0.00 0.00 0.00 85 1011.5
20260902093120 78 254 0.0 0.0 0.00 0.00 0.00 85 1011.4
20260902093017 78 254 0.0 0.0 0.00 0.00 0.00 85 1011.4
20260902092914 78 254 0.0 0.0 0.00 0.00 0.00 85 1011.5
20260902092806 78 254 0.0 0.0 0.00 0.00 0.00 85 1011.5
20260902092437 78 256 0.0 0.0 0.00 0.00 0.00 85 1011.4
20260902092331 78 256 0.0 0.0 0.00 0.00 0.00 85 1011.5
20260902092230 78 255 0.0 0.0 0.00 0.00 0.00 85 1011.4
20260902092124 78 255 0.0 0.0 0.00 0.00 0.00 85 1011.5
20260902092020 78 255 0.0 0.0 0.00 0.00 0.00 85 1011.5
20260902091918 78 254 0.0 0.0 0.00 0.00 0.00 85 1011.5
20260902091815 78 254 0.0 0.0 0.00 0.00 0.00 85 1011.5
20260902091454 78 254 0.0 0.0 0.00 0.00 0.00 86 1011.5
20260902091346 78 254 0.0 0.0 0.00 0.00 0.00 86 1011.5
20260902091245 78 280 0.0 0.0 0.00 0.00 0.00 85 1011.4
20260902090922 78 259 0.0 0.0 0.00 0.00 0.00 85 1011.4
20260902090818 78 259 0.0 0.0 0.00 0.00 0.00 85 1011.3
20260902090714 78 259 0.0 0.0 0.00 0.00 0.00 85 1011.4
20260902090608 78 259 0.0 0.0 0.00 0.00 0.00 86 1011.3
20260902085757 78 248 0.0 0.0 0.00 0.00 0.00 86 1011.3
20260902085651 78 248 0.0 0.0 0.00 0.00 0.00 86 1011.2
20260902085547 78 248 0.0 0.0 0.00 0.00 0.00 86 1011.2
20260902085442 78 248 0.0 0.0 0.00 0.00 0.00 86 1011.2
20260902085336 78 248 0.0 0.0 0.00 0.00 0.00 86 1011.2
20260902085010 78 262 0.0 2.0 0.00 0.00 0.00 86 1011.2
20260902084905 78 262 0.0 2.0 0.00 0.00 0.00 86 1011.2
20260902084801 79 263 0.0 0.0 0.00 0.00 0.00 86 1011.2
20260902084655 79 265 0.0 0.0 0.00 0.00 0.00 86 1011.2
20260902084326 79 259 0.0 0.0 0.00 0.00 0.00 85 1011.2
20260902084220 79 259 0.0 0.0 0.00 0.00 0.00 85 1011.2
20260902084117 79 262 0.0 0.0 0.00 0.00 0.00 85 1011.1
20260902083752 79 270 0.0 0.0 0.00 0.00 0.00 85 1011.2
20260902083427 79 269 0.0 0.0 0.00 0.00 0.00 85 1011.2
20260902083323 79 266 0.0 0.0 0.00 0.00 0.00 85 1011.3
20260902083000 79 252 0.0 0.0 0.00 0.00 0.00 85 1011.3
20260902082853 79 252 0.0 0.0 0.00 0.00 0.00 85 1011.2
20260902082750 79 252 0.0 0.0 0.00 0.00 0.00 85 1011.3
20260902082644 79 282 0.0 0.0 0.00 0.00 0.00 85 1011.3
20260902082539 79 287 0.0 0.0 0.00 0.00 0.00 85 1011.3
20260902082433 79 272 0.0 0.0 0.00 0.00 0.00 85 1011.2
20260902082331 79 272 0.0 0.0 0.00 0.00 0.00 85 1011.2
20260902082225 79 273 0.0 0.0 0.00 0.00 0.00 85 1011.2
20260902081639 79 284 0.0 4.0 0.00 0.00 0.00 85 1011.1
20260902081532 79 284 0.0 4.0 0.00 0.00 0.00 85 1011.2
20260902081210 79 248 0.0 0.0 0.00 0.00 0.00 85 1011.2
20260902080845 79 256 0.0 5.0 0.00 0.00 0.00 85 1011.1
20260902080738 79 252 0.0 5.0 0.00 0.00 0.00 85 1011.1
20260902080635 79 279 0.0 5.0 0.00 0.00 0.00 85 1011.1
20260902080530 79 277 0.0 4.0 0.00 0.00 0.00 85 1011.1
20260902080425 79 270 0.0 0.0 0.00 0.00 0.00 85 1011.0
20260902080321 79 284 0.0 0.0 0.00 0.00 0.00 85 1011.1
20260902080216 79 286 0.0 0.0 0.00 0.00 0.00 85 1011.1
20260902080113 79 258 0.0 0.0 0.00 0.00 0.00 85 1011.1
20260902075749 79 263 0.0 0.0 0.00 0.00 0.00 86 1011.2
20260902075645 79 269 0.0 0.0 0.00 0.00 0.00 86 1011.2
20260902075539 79 269 0.0 0.0 0.00 0.00 0.00 86 1011.2
20260902075212 79 283 1.0 8.0 0.00 0.00 0.00 86 1011.2
20260902075105 79 278 1.0 8.0 0.00 0.00 0.00 87 1011.2
20260902074959 79 262 1.0 8.0 0.00 0.00 0.00 87 1011.2
20260902074855 79 264 1.0 6.0 0.00 0.00 0.00 87 1011.2
20260902074751 79 289 1.0 6.0 0.00 0.00 0.00 88 1011.2
20260902074647 79 260 0.0 6.0 0.00 0.00 0.00 88 1011.2
20260902074539 78 244 0.0 6.0 0.00 0.00 0.00 88 1011.1
20260902074434 78 281 0.0 6.0 0.00 0.00 0.00 89 1011.1
20260902074328 78 290 0.0 6.0 0.00 0.00 0.00 89 1011.2
20260902074001 78 266 0.0 4.0 0.00 0.00 0.00 90 1011.1
20260902073858 78 288 0.0 0.0 0.00 0.00 0.00 91 1011.1
20260902073753 78 314 0.0 0.0 0.00 0.00 0.00 91 1011.1
20260902073650 78 259 0.0 0.0 0.00 0.00 0.00 91 1011.1
20260902073323 77 254 0.0 5.0 0.00 0.00 0.00 92 1011.1
20260902073218 77 244 0.0 0.0 0.00 0.00 0.00 92 1011.1
20260902073113 77 268 0.0 0.0 0.00 0.00 0.00 92 1011.1
20260902073009 77 268 0.0 0.0 0.00 0.00 0.00 93 1011.1
20260902072904 77 279 0.0 0.0 0.00 0.00 0.00 93 1011.1
20260902072758 77 269 0.0 0.0 0.00 0.00 0.00 93 1011.1
20260902072653 77 269 0.0 0.0 0.00 0.00 0.00 93 1011.1
20260902072547 77 261 0.0 0.0 0.00 0.00 0.00 93 1011.1
20260902072445 77 261 0.0 0.0 0.00 0.00 0.00 94 1011.1
20260902072339 77 252 0.0 0.0 0.00 0.00 0.00 94 1011.1
20260902072233 77 216 0.0 0.0 0.00 0.00 0.00 94 1011.1
20260902072130 76 216 0.0 0.0 0.00 0.00 0.00 94 1011.1
20260902072025 76 177 0.0 0.0 0.00 0.00 0.00 94 1011.1
20260902071923 76 249 0.0 0.0 0.00 0.00 0.00 94 1011.1
20260902071819 76 250 0.0 0.0 0.00 0.00 0.00 94 1011.1
20260902071011 75 267 0.0 0.0 0.00 0.00 0.00 95 1011.1
20260902070908 75 266 0.0 0.0 0.00 0.00 0.00 95 1011.0
20260902070804 75 267 0.0 0.0 0.00 0.00 0.00 95 1011.0
20260902070439 75 250 0.0 0.0 0.00 0.00 0.00 95 1011.0
20260902070117 75 250 0.0 0.0 0.00 0.00 0.00 94 1011.1
20260902070013 75 263 0.0 0.0 0.00 0.00 0.00 95 1011.1
20260902065906 74 269 0.0 0.0 0.00 0.00 0.00 94 1011.1
20260902065759 74 250 0.0 0.0 0.00 0.00 0.00 94 1011.1
20260902065652 74 250 0.0 0.0 0.00 0.00 0.00 94 1011.1
20260902065330 74 250 0.0 0.0 0.00 0.00 0.00 94 1011.0
20260902065008 73 250 0.0 0.0 0.00 0.00 0.00 94 1011.0
20260902064639 73 251 0.0 0.0 0.00 0.00 0.00 94 1011.0
20260902064057 73 251 0.0 0.0 0.00 0.00 0.00 94 1011.1
20260902063954 73 251 0.0 0.0 0.00 0.00 0.00 94 1011.1
20260902063850 72 251 0.0 0.0 0.00 0.00 0.00 94 1011.1
20260902063744 72 251 0.0 0.0 0.00 0.00 0.00 93 1011.1
20260902063419 72 251 0.0 0.0 0.00 0.00 0.00 93 1011.1
20260902063312 72 251 0.0 0.0 0.00 0.00 0.00 93 1011.1
20260902063205 72 251 0.0 0.0 0.00 0.00 0.00 93 1011.1
20260902063102 72 251 0.0 0.0 0.00 0.00 0.00 93 1011.1
20260902062958 72 251 0.0 0.0 0.00 0.00 0.00 93 1011.1
20260902062636 72 251 0.0 0.0 0.00 0.00 0.00 93 1011.1
20260902062311 72 251 0.0 0.0 0.00 0.00 0.00 93 1011.1
20260902062206 72 251 0.0 0.0 0.00 0.00 0.00 93 1011.1
20260902061842 73 251 0.0 0.0 0.00 0.00 0.00 93 1011.2
20260902061735 73 251 0.0 0.0 0.00 0.00 0.00 93 1011.1
20260902061410 73 251 0.0 0.0 0.00 0.00 0.00 93 1011.2
20260902061302 72 251 0.0 0.0 0.00 0.00 0.00 93 1011.1
20260902061155 72 251 0.0 0.0 0.00 0.00 0.00 93 1011.2
20260902061050 72 251 0.0 0.0 0.00 0.00 0.00 93 1011.2
20260902060726 73 251 0.0 0.0 0.00 0.00 0.00 93 1011.2
20260902060619 73 251 0.0 0.0 0.00 0.00 0.00 93 1011.3
20260902060515 73 251 0.0 0.0 0.00 0.00 0.00 93 1011.3
20260902060409 73 251 0.0 0.0 0.00 0.00 0.00 93 1011.3
20260902060305 73 251 0.0 0.0 0.00 0.00 0.00 93 1011.3
20260902060200 73 251 0.0 0.0 0.00 0.00 0.00 93 1011.3
20260902060053 73 251 0.0 0.0 0.00 0.00 0.00 93 1011.4
20260902055949 73 251 0.0 0.0 0.00 0.00 0.00 93 1011.3
20260902055843 73 251 0.0 0.0 0.00 0.00 0.00 93 1011.4
20260902055737 73 251 0.0 0.0 0.00 0.00 0.00 93 1011.3
20260902055631 73 251 0.0 0.0 0.00 0.00 0.00 93 1011.3
20260902055308 73 251 0.0 0.0 0.00 0.00 0.00 93 1011.4
20260902054723 73 251 0.0 0.0 0.00 0.00 0.00 93 1011.4
20260902054616 72 251 0.0 0.0 0.00 0.00 0.00 93 1011.4
20260902054512 72 251 0.0 0.0 0.00 0.00 0.00 93 1011.5
20260902054148 72 251 0.0 0.0 0.00 0.00 0.00 93 1011.5
20260902054041 72 251 0.0 0.0 0.00 0.00 0.00 93 1011.5
20260902053938 72 251 0.0 0.0 0.00 0.00 0.00 93 1011.6
20260902053833 72 251 0.0 0.0 0.00 0.00 0.00 93 1011.6
20260902053728 72 251 0.0 0.0 0.00 0.00 0.00 93 1011.6
20260902053626 72 251 0.0 0.0 0.00 0.00 0.00 93 1011.6
20260902053519 72 251 0.0 0.0 0.00 0.00 0.00 93 1011.6
20260902053417 72 251 0.0 0.0 0.00 0.00 0.00 93 1011.6
20260902053311 72 251 0.0 0.0 0.00 0.00 0.00 93 1011.6
20260902053208 72 251 0.0 0.0 0.00 0.00 0.00 93 1011.6
20260902053105 72 251 0.0 0.0 0.00 0.00 0.00 93 1011.6
20260902052742 72 251 0.0 0.0 0.00 0.00 0.00 93 1011.7
20260902052637 72 251 0.0 0.0 0.00 0.00 0.00 93 1011.7
20260902052310 72 251 0.0 0.0 0.00 0.00 0.00 93 1011.7
20260902052208 72 251 0.0 0.0 0.00 0.00 0.00 93 1011.7
20260902052104 72 251 0.0 0.0 0.00 0.00 0.00 93 1011.7
20260902051957 72 251 0.0 0.0 0.00 0.00 0.00 92 1011.8
20260902051635 72 251 0.0 0.0 0.00 0.00 0.00 92 1011.7
20260902051533 72 251 0.0 0.0 0.00 0.00 0.00 92 1011.7
20260902051431 72 251 0.0 0.0 0.00 0.00 0.00 92 1011.7
20260902051329 72 251 0.0 0.0 0.00 0.00 0.00 92 1011.7
20260902051225 72 251 0.0 0.0 0.00 0.00 0.00 92 1011.6
20260902051122 72 251 0.0 0.0 0.00 0.00 0.00 92 1011.6
20260902050757 72 251 0.0 0.0 0.00 0.00 0.00 92 1011.7
20260902050655 72 251 0.0 0.0 0.00 0.00 0.00 92 1011.6
20260902050550 72 251 0.0 0.0 0.00 0.00 0.00 92 1011.6
20260902050447 72 251 0.0 0.0 0.00 0.00 0.00 92 1011.6
20260902050122 72 251 0.0 0.0 0.00 0.00 0.00 92 1011.6
20260902050017 72 251 0.0 0.0 0.00 0.00 0.00 92 1011.5
20260902045648 72 251 0.0 0.0 0.00 0.00 0.00 92 1011.5
20260902045540 73 251 0.0 0.0 0.00 0.00 0.00 92 1011.5
20260902045433 73 251 0.0 0.0 0.00 0.00 0.00 92 1011.5
20260902045328 72 251 0.0 0.0 0.00 0.00 0.00 92 1011.4
20260902045226 73 251 0.0 0.0 0.00 0.00 0.00 92 1011.5
20260902045118 72 251 0.0 0.0 0.00 0.00 0.00 92 1011.4
20260902045011 73 251 0.0 0.0 0.00 0.00 0.00 92 1011.5
20260902044649 73 251 0.0 0.0 0.00 0.00 0.00 92 1011.5
20260902044547 73 251 0.0 0.0 0.00 0.00 0.00 92 1011.5
20260902044442 73 251 0.0 0.0 0.00 0.00 0.00 92 1011.5
20260902044114 73 251 0.0 0.0 0.00 0.00 0.00 92 1011.5
20260902044008 73 251 0.0 0.0 0.00 0.00 0.00 92 1011.5
20260902043645 73 251 0.0 0.0 0.00 0.00 0.00 92 1011.5
20260902043541 73 251 0.0 0.0 0.00 0.00 0.00 92 1011.5
20260902043436 73 251 0.0 0.0 0.00 0.00 0.00 92 1011.5
20260902043332 73 251 0.0 0.0 0.00 0.00 0.00 92 1011.5
20260902043228 73 251 0.0 0.0 0.00 0.00 0.00 92 1011.5
20260902043124 73 251 0.0 0.0 0.00 0.00 0.00 92 1011.5
20260902043017 73 251 0.0 0.0 0.00 0.00 0.00 92 1011.5
20260902042435 72 251 0.0 0.0 0.00 0.00 0.00 92 1011.6
20260902042331 73 251 0.0 0.0 0.00 0.00 0.00 92 1011.6
20260902042227 73 251 0.0 0.0 0.00 0.00 0.00 92 1011.6
20260902041900 72 251 0.0 0.0 0.00 0.00 0.00 92 1011.5
20260902041755 72 251 0.0 0.0 0.00 0.00 0.00 92 1011.6
20260902041648 72 251 0.0 0.0 0.00 0.00 0.00 92 1011.5
20260902041104 73 251 0.0 0.0 0.00 0.00 0.00 92 1011.5
20260902040515 73 251 0.0 0.0 0.00 0.00 0.00 92 1011.5
20260902040411 73 251 0.0 0.0 0.00 0.00 0.00 92 1011.5
20260902040304 73 251 0.0 0.0 0.00 0.00 0.00 92 1011.5
20260902040157 73 251 0.0 0.0 0.00 0.00 0.00 92 1011.6
20260902040053 73 251 0.0 0.0 0.00 0.00 0.00 92 1011.5
20260902035950 73 251 0.0 0.0 0.00 0.00 0.00 92 1011.5
20260902035845 73 251 0.0 0.0 0.00 0.00 0.00 92 1011.6
20260902035521 73 251 0.0 0.0 0.00 0.00 0.00 92 1011.5
20260902035157 73 251 0.0 0.0 0.00 0.00 0.00 92 1011.6
20260902035053 73 251 0.0 0.0 0.00 0.00 0.00 92 1011.6
20260902034728 73 251 0.0 0.0 0.00 0.00 0.00 92 1011.6